New Orleans Lakefront, LA

5:53 PM CDT on September 25, 2017 (GMT -0500)
Lakefront

Weather History for KNEW - February, 2014

Change the Weather History Date:

Thursday, February 20, 2014

  Actual Average Record
Temperature  
Mean Temperature 73 °F 58 °F  
Max Temperature 80 °F 66 °F 82 °F (1971)
Min Temperature 66 °F 49 °F 26 °F (1978)
Degree Days  
Heating Degree Days 0 8  
Month to date heating degree days 208 195  
Since 1 July heating degree days 1295 1051  
Cooling Degree Days 8 1  
Month to date cooling degree days 24 20  
Year to date cooling degree days 24 36  
Growing Degree Days 22 (Base 50)    
Moisture  
Dew Point 68 °F    
Average Humidity 85    
Maximum Humidity 100    
Minimum Humidity 69    
Precipitation  
Precipitation 0.02 in 0.17 in 1.85 in (1979)
Month to date precipitation 2.85 3.92  
Year to date precipitation 5.57 9.07  
Snow  
Snow 0.00 in - - ()
Month to date snowfall T  
Since 1 July snowfall T  
Snow Depth 0.00 in    
Sea Level Pressure  
Sea Level Pressure 29.91 in    
Wind  
Wind Speed 15 mph (South)    
Max Wind Speed 29 mph    
Max Gust Speed 40 mph    
Visibility 9 miles    
Events Rain , Thunderstorm    
T = Trace of Precipitation, MM = Missing Value Source: NWS Daily Summary

Daily Weather History Graph

Daily Weather History Graph

Search for Another Location

Airport or City:

Trip Planner

Search our weather history database for the weather conditions in past years. The results will help you decide how hot, cold, wet, or windy it might be!

Date:

Astronomy

Feb. 20, 2014 Rise Set
Actual Time 6:35 AM CST 5:52 PM CST
Civil Twilight 6:11 AM CST 6:17 PM CST
Nautical Twilight 5:43 AM CST 6:44 PM CST
Astronomical Twilight 5:15 AM CST 7:12 PM CST
Moon 11:19 PM CST (2/20) 9:43 AM CST (2/20)
Length of Visible Light 12h 05m
Length of Day
11h 17m
Waning Gibbous, 70% of the Moon is Illuminated
Feb 20
Waning Gibbous
Feb 22
Last Quarter
Mar 1
New
Mar 8
First Quarter
Mar 16
Full

Hourly Weather History & Observations

Time (CST) Temp. Dew Point Humidity Pressure Visibility Wind Dir Wind Speed Gust Speed Precip Events Conditions
12:53 AM 68.0 °F 66.0 °F 93% 29.94 in 8.0 mi SSE 12.7 mph - N/A   Overcast
1:53 AM 66.9 °F 64.9 °F 93% 29.94 in 9.0 mi SSE 11.5 mph - N/A   Overcast
2:53 AM 66.9 °F 64.9 °F 93% 29.93 in 7.0 mi South 11.5 mph - N/A   Overcast
3:53 AM 66.9 °F 66.0 °F 97% 29.92 in 7.0 mi SSE 10.4 mph - N/A   Overcast
4:53 AM 66.9 °F 64.9 °F 93% 29.93 in 8.0 mi South 10.4 mph - N/A   Overcast
5:53 AM 66.9 °F 64.9 °F 93% 29.94 in 8.0 mi South 10.4 mph - N/A   Overcast
6:53 AM 66.9 °F 64.9 °F 93% 29.94 in 7.0 mi SSE 11.5 mph - N/A   Overcast
7:53 AM 66.9 °F 64.9 °F 93% 29.95 in 6.0 mi South 11.5 mph - N/A   Overcast
8:53 AM 70.0 °F 66.9 °F 90% 29.96 in 7.0 mi South 10.4 mph - N/A   Overcast
9:30 AM 73.0 °F 68.0 °F 84% 29.98 in 10.0 mi South 13.8 mph - N/A   Overcast
9:53 AM 75.0 °F 68.0 °F 79% 29.95 in 10.0 mi South 21.9 mph 27.6 mph N/A   Overcast
10:33 AM 78.1 °F 68.0 °F 71% 29.97 in 10.0 mi SSW 19.6 mph 32.2 mph N/A   Mostly Cloudy
10:53 AM 77.0 °F 66.9 °F 71% 29.96 in 10.0 mi South 18.4 mph - N/A   Mostly Cloudy
11:15 AM 78.1 °F 66.9 °F 68% 29.97 in 10.0 mi South 20.7 mph - N/A   Mostly Cloudy
11:22 AM 78.1 °F 66.9 °F 68% 29.97 in 10.0 mi South 21.9 mph 31.1 mph N/A   Mostly Cloudy
11:53 AM 78.1 °F 66.9 °F 68% 29.94 in 10.0 mi South 18.4 mph 31.1 mph N/A   Mostly Cloudy
12:53 PM 79.0 °F 66.9 °F 66% 29.91 in 10.0 mi South 24.2 mph 29.9 mph N/A   Mostly Cloudy
1:10 PM 79.0 °F 68.0 °F 69% 29.93 in 10.0 mi South 20.7 mph - N/A   Mostly Cloudy
1:34 PM 79.0 °F 68.0 °F 69% 29.92 in 10.0 mi South 20.7 mph 28.8 mph N/A   Mostly Cloudy
1:42 PM 79.0 °F 68.0 °F 69% 29.92 in 10.0 mi South 20.7 mph - N/A   Mostly Cloudy
1:53 PM 79.0 °F 68.0 °F 69% 29.90 in 10.0 mi South 20.7 mph - N/A   Mostly Cloudy
2:06 PM 78.1 °F 68.0 °F 71% 29.91 in 10.0 mi South 23.0 mph 28.8 mph N/A   Mostly Cloudy
2:53 PM 78.1 °F 69.1 °F 74% 29.89 in 10.0 mi South 16.1 mph - N/A   Overcast
3:53 PM 77.0 °F 69.1 °F 76% 29.88 in 10.0 mi South 18.4 mph 27.6 mph N/A   Mostly Cloudy
4:10 PM 75.9 °F 69.1 °F 79% 29.90 in 10.0 mi South 15.0 mph - N/A   Mostly Cloudy
4:53 PM 75.9 °F 69.1 °F 79% 29.88 in 10.0 mi South 18.4 mph - N/A   Overcast
5:27 PM 75.0 °F 69.1 °F 82% 29.89 in 10.0 mi SSW 17.3 mph - N/A   Mostly Cloudy
5:46 PM 75.0 °F 69.1 °F 82% 29.89 in 10.0 mi South 18.4 mph - N/A   Mostly Cloudy
5:53 PM 73.9 °F 69.1 °F 85% 29.88 in 10.0 mi South 15.0 mph - N/A   Overcast
6:24 PM 73.9 °F 69.1 °F 85% 29.89 in 10.0 mi South 16.1 mph - N/A   Mostly Cloudy
6:53 PM 73.0 °F 69.1 °F 87% 29.86 in 10.0 mi South 19.6 mph - N/A   Mostly Cloudy
7:17 PM 73.0 °F 69.1 °F 87% 29.88 in 10.0 mi South 15.0 mph - N/A   Overcast
7:53 PM 73.0 °F 69.1 °F 87% 29.86 in 9.0 mi South 17.3 mph - N/A   Overcast
8:20 PM 73.0 °F 69.1 °F 87% 29.88 in 9.0 mi South 18.4 mph - N/A   Overcast
8:37 PM 73.0 °F 69.1 °F 87% 29.88 in 10.0 mi South 19.6 mph 26.5 mph N/A   Overcast
8:53 PM 73.0 °F 69.1 °F 87% 29.85 in 10.0 mi South 21.9 mph 29.9 mph N/A   Overcast
9:53 PM 73.0 °F 69.1 °F 87% 29.87 in 10.0 mi SSW 18.4 mph - N/A   Overcast
10:53 PM 73.0 °F 69.1 °F 87% 29.88 in 10.0 mi SSW 25.3 mph 32.2 mph N/A   Overcast
11:14 PM 73.0 °F 69.1 °F 87% 29.89 in 10.0 mi SSW 20.7 mph 31.1 mph 0.00 in Rain , Thunderstorm Light Rain
11:29 PM 72.0 °F 69.1 °F 91% 29.90 in 10.0 mi SSW 21.9 mph 32.2 mph 0.00 in   Overcast
11:53 PM 71.1 °F 69.1 °F 93% 29.88 in 7.0 mi SSW 19.6 mph 29.9 mph 0.01 in Rain Light Rain